Time,TemperatureF,DewpointF,PressureIn,WindDirection,WindDirectionDegrees,WindSpeedMPH,WindSpeedGustMPH,Humidity,HourlyPrecipIn,Conditions,Clouds,dailyrainin,SoftwareType,DateUTC
2013-12-21 00:00:00,46.0,37.1,29.97,WSW,254,2.0,3.0,71,0.00,,,0.00,VWS V15.00,2013-12-21 05:00:00,
2013-12-21 00:01:00,45.8,36.6,29.98,West,262,3.0,6.0,70,0.00,,,0.00,VWS V15.00,2013-12-21 05:01:00,
2013-12-21 00:06:00,45.9,36.7,29.97,WSW,257,4.0,5.0,70,0.00,,,0.00,VWS V15.00,2013-12-21 05:06:00,
2013-12-21 00:10:00,45.6,36.8,29.97,WSW,249,0.0,4.0,71,0.00,,,0.00,VWS V15.00,2013-12-21 05:10:00,
2013-12-21 00:11:00,46.0,36.8,29.97,West,261,4.0,6.0,70,0.00,,,0.00,VWS V15.00,2013-12-21 05:11:00,
2013-12-21 00:16:00,46.0,36.8,29.97,West,265,0.0,4.0,70,0.00,,,0.00,VWS V15.00,2013-12-21 05:16:00,
2013-12-21 00:20:00,45.2,36.7,29.97,WSW,249,0.0,1.0,72,0.00,,,0.00,VWS V15.00,2013-12-21 05:20:00,
2013-12-21 00:21:00,46.0,37.1,29.97,WSW,252,0.0,7.0,71,0.00,,,0.00,VWS V15.00,2013-12-21 05:21:00,
2013-12-21 00:26:00,45.9,37.0,29.97,WNW,286,2.0,6.0,71,0.00,,,0.00,VWS V15.00,2013-12-21 05:26:00,
2013-12-21 00:30:00,44.6,36.2,29.96,WSW,249,0.0,0.0,72,0.00,,,0.00,VWS V15.00,2013-12-21 05:30:00,
2013-12-21 00:31:00,45.8,37.0,29.97,WSW,257,0.0,6.0,71,0.00,,,0.00,VWS V15.00,2013-12-21 05:31:00,
2013-12-21 00:36:00,45.8,37.0,29.97,West,259,2.0,7.0,71,0.00,,,0.00,VWS V15.00,2013-12-21 05:36:00,
2013-12-21 00:40:00,44.1,36.0,29.96,WSW,249,1.0,1.0,73,0.00,,,0.00,VWS V15.00,2013-12-21 05:40:00,
2013-12-21 00:41:00,45.9,37.4,29.97,WSW,242,4.0,7.0,72,0.00,,,0.00,VWS V15.00,2013-12-21 05:41:00,
2013-12-21 00:46:00,46.0,37.5,29.97,West,271,0.0,7.0,72,0.00,,,0.00,VWS V15.00,2013-12-21 05:46:00,
2013-12-21 00:50:00,43.5,35.8,29.95,WSW,250,1.0,2.0,74,0.00,,,0.00,VWS V15.00,2013-12-21 05:50:00,
2013-12-21 00:51:00,46.1,37.2,29.97,WSW,257,3.0,7.0,71,0.00,,,0.00,VWS V15.00,2013-12-21 05:51:00,
2013-12-21 00:56:00,46.1,37.2,29.97,West,268,0.0,3.0,71,0.00,,,0.00,VWS V15.00,2013-12-21 05:56:00,
2013-12-21 01:00:00,43.2,35.8,29.97,West,259,3.0,3.0,75,0.00,,,0.00,VWS V15.00,2013-12-21 06:00:00,
2013-12-21 01:01:00,46.0,37.1,29.97,WSW,254,0.0,3.0,71,0.00,,,0.00,VWS V15.00,2013-12-21 06:01:00,
2013-12-21 01:06:00,45.9,37.0,29.97,WSW,253,0.0,3.0,71,0.00,,,0.00,VWS V15.00,2013-12-21 06:06:00,
2013-12-21 01:10:00,43.1,36.1,29.97,West,267,0.0,3.0,76,0.00,,,0.00,VWS V15.00,2013-12-21 06:10:00,
2013-12-21 01:11:00,45.7,36.8,29.97,WSW,249,0.0,4.0,71,0.00,,,0.00,VWS V15.00,2013-12-21 06:11:00,
2013-12-21 01:16:00,45.4,36.6,29.97,WSW,249,0.0,1.0,71,0.00,,,0.00,VWS V15.00,2013-12-21 06:16:00,
2013-12-21 01:20:00,43.0,36.0,29.98,West,267,0.0,2.0,76,0.00,,,0.00,VWS V15.00,2013-12-21 06:20:00,
2013-12-21 01:21:00,45.2,36.4,29.97,WSW,249,0.0,1.0,71,0.00,,,0.00,VWS V15.00,2013-12-21 06:21:00,
2013-12-21 01:26:00,45.0,36.5,29.97,WSW,249,0.0,0.0,72,0.00,,,0.00,VWS V15.00,2013-12-21 06:26:00,
2013-12-21 01:30:00,42.8,35.8,29.98,West,267,0.0,0.0,76,0.00,,,0.00,VWS V15.00,2013-12-21 06:30:00,
2013-12-21 01:31:00,44.6,36.2,29.96,WSW,249,0.0,0.0,72,0.00,,,0.00,VWS V15.00,2013-12-21 06:31:00,
2013-12-21 01:33:00,44.5,36.0,29.96,WSW,249,0.0,0.0,72,0.00,,,0.00,VWS V15.00,2013-12-21 06:33:00,
2013-12-21 01:38:00,44.3,36.2,29.96,WSW,249,0.0,0.0,73,0.00,,,0.00,VWS V15.00,2013-12-21 06:38:00,
2013-12-21 01:40:00,42.6,35.9,29.98,West,267,0.0,0.0,77,0.00,,,0.00,VWS V15.00,2013-12-21 06:40:00,
2013-12-21 01:43:00,44.0,35.9,29.96,WSW,249,0.0,1.0,73,0.00,,,0.00,VWS V15.00,2013-12-21 06:43:00,
2013-12-21 01:48:00,43.7,36.0,29.95,WSW,249,0.0,1.0,74,0.00,,,0.00,VWS V15.00,2013-12-21 06:48:00,
2013-12-21 01:50:00,42.1,35.4,29.97,West,267,0.0,1.0,77,0.00,,,0.00,VWS V15.00,2013-12-21 06:50:00,
2013-12-21 01:53:00,43.5,35.8,29.95,WSW,250,0.0,2.0,74,0.00,,,0.00,VWS V15.00,2013-12-21 06:53:00,
2013-12-21 01:58:00,43.3,35.9,29.95,WSW,255,0.0,2.0,75,0.00,,,0.00,VWS V15.00,2013-12-21 06:58:00,
2013-12-21 02:00:00,41.7,35.0,29.97,West,267,0.0,1.0,77,0.00,,,0.00,VWS V15.00,2013-12-21 07:00:00,
2013-12-21 02:03:00,43.2,35.8,29.97,West,259,0.0,3.0,75,0.00,,,0.00,VWS V15.00,2013-12-21 07:03:00,
2013-12-21 02:08:00,43.1,36.1,29.97,West,259,0.0,3.0,76,0.00,,,0.00,VWS V15.00,2013-12-21 07:08:00,
2013-12-21 02:10:00,41.4,35.4,29.97,West,267,4.0,4.0,79,0.00,,,0.00,VWS V15.00,2013-12-21 07:10:00,
2013-12-21 02:13:00,43.1,36.1,29.97,West,267,0.0,0.0,76,0.00,,,0.00,VWS V15.00,2013-12-21 07:13:00,
2013-12-21 02:18:00,43.1,36.1,29.98,West,267,0.0,2.0,76,0.00,,,0.00,VWS V15.00,2013-12-21 07:18:00,
2013-12-21 02:20:00,41.3,35.6,29.97,WSW,252,0.0,4.0,80,0.00,,,0.00,VWS V15.00,2013-12-21 07:20:00,
2013-12-21 02:23:00,43.0,36.0,29.98,West,267,0.0,0.0,76,0.00,,,0.00,VWS V15.00,2013-12-21 07:23:00,
2013-12-21 02:28:00,42.9,35.9,29.98,West,267,0.0,0.0,76,0.00,,,0.00,VWS V15.00,2013-12-21 07:28:00,
2013-12-21 02:30:00,41.8,36.4,29.96,West,277,0.0,5.0,81,0.00,,,0.00,VWS V15.00,2013-12-21 07:30:00,
2013-12-21 02:33:00,42.8,35.8,29.98,West,267,0.0,0.0,76,0.00,,,0.00,VWS V15.00,2013-12-21 07:33:00,
2013-12-21 02:38:00,42.7,35.7,29.98,West,267,0.0,0.0,76,0.00,,,0.00,VWS V15.00,2013-12-21 07:38:00,
2013-12-21 02:40:00,42.6,37.2,29.96,West,267,3.0,6.0,81,0.00,,,0.00,VWS V15.00,2013-12-21 07:40:00,
2013-12-21 02:43:00,42.5,35.8,29.98,West,267,0.0,0.0,77,0.00,,,0.00,VWS V15.00,2013-12-21 07:43:00,
2013-12-21 02:48:00,42.3,35.6,29.97,West,267,0.0,0.0,77,0.00,,,0.00,VWS V15.00,2013-12-21 07:48:00,
2013-12-21 02:50:00,43.3,37.6,29.95,West,276,3.0,5.0,80,0.00,,,0.00,VWS V15.00,2013-12-21 07:50:00,
2013-12-21 02:53:00,42.0,35.3,29.97,West,267,0.0,0.0,77,0.00,,,0.00,VWS V15.00,2013-12-21 07:53:00,
2013-12-21 02:58:00,41.9,35.2,29.97,West,267,0.0,0.0,77,0.00,,,0.00,VWS V15.00,2013-12-21 07:58:00,
2013-12-21 03:00:00,44.2,38.1,29.95,West,269,3.0,4.0,79,0.00,,,0.00,VWS V15.00,2013-12-21 08:00:00,
2013-12-21 03:03:00,41.7,35.0,29.97,West,267,0.0,0.0,77,0.00,,,0.00,VWS V15.00,2013-12-21 08:03:00,
2013-12-21 03:08:00,41.5,35.2,29.97,West,267,1.0,1.0,78,0.00,,,0.00,VWS V15.00,2013-12-21 08:08:00,
2013-12-21 03:10:00,44.7,37.9,29.95,WNW,286,2.0,6.0,77,0.00,,,0.00,VWS V15.00,2013-12-21 08:10:00,
2013-12-21 03:13:00,41.4,35.4,29.97,West,277,0.0,4.0,79,0.00,,,0.00,VWS V15.00,2013-12-21 08:13:00,
2013-12-21 03:18:00,41.4,35.4,29.97,West,265,0.0,4.0,79,0.00,,,0.00,VWS V15.00,2013-12-21 08:18:00,
2013-12-21 03:20:00,44.9,38.1,29.95,West,261,1.0,4.0,77,0.00,,,0.00,VWS V15.00,2013-12-21 08:20:00,
2013-12-21 03:23:00,41.3,35.6,29.97,WSW,252,0.0,0.0,80,0.00,,,0.00,VWS V15.00,2013-12-21 08:23:00,
2013-12-21 03:28:00,41.4,36.0,29.97,West,273,3.0,5.0,81,0.00,,,0.00,VWS V15.00,2013-12-21 08:28:00,
2013-12-21 03:30:00,45.3,38.5,29.95,West,277,2.0,5.0,77,0.00,,,0.00,VWS V15.00,2013-12-21 08:30:00,
2013-12-21 03:33:00,41.8,36.7,29.96,WSW,248,1.0,4.0,82,0.00,,,0.00,VWS V15.00,2013-12-21 08:33:00,
2013-12-21 03:38:00,42.2,36.8,29.96,West,277,2.0,6.0,81,0.00,,,0.00,VWS V15.00,2013-12-21 08:38:00,
2013-12-21 03:40:00,46.0,38.5,29.95,West,265,2.0,6.0,75,0.00,,,0.00,VWS V15.00,2013-12-21 08:40:00,
2013-12-21 03:43:00,42.6,37.2,29.96,West,267,0.0,3.0,81,0.00,,,0.00,VWS V15.00,2013-12-21 08:43:00,
2013-12-21 03:48:00,42.8,37.1,29.95,West,267,1.0,3.0,80,0.00,,,0.00,VWS V15.00,2013-12-21 08:48:00,
2013-12-21 03:50:00,46.3,38.8,29.95,West,271,4.0,5.0,75,0.00,,,0.00,VWS V15.00,2013-12-21 08:50:00,
2013-12-21 03:53:00,43.4,37.7,29.95,WNW,287,2.0,4.0,80,0.00,,,0.00,VWS V15.00,2013-12-21 08:53:00,
2013-12-21 03:58:00,43.9,37.8,29.95,West,267,3.0,4.0,79,0.00,,,0.00,VWS V15.00,2013-12-21 08:58:00,
2013-12-21 04:00:00,46.5,38.7,29.95,West,273,3.0,6.0,74,0.00,,,0.00,VWS V15.00,2013-12-21 09:00:00,
2013-12-21 04:03:00,44.2,37.8,29.95,West,271,6.0,6.0,78,0.00,,,0.00,VWS V15.00,2013-12-21 09:03:00,
2013-12-21 04:08:00,44.6,38.2,29.95,WNW,288,2.0,6.0,78,0.00,,,0.00,VWS V15.00,2013-12-21 09:08:00,
2013-12-21 04:10:00,46.5,38.7,29.95,WSW,258,0.0,6.0,74,0.00,,,0.00,VWS V15.00,2013-12-21 09:10:00,
2013-12-21 04:13:00,44.7,37.9,29.95,WNW,286,1.0,3.0,77,0.00,,,0.00,VWS V15.00,2013-12-21 09:13:00,
2013-12-21 04:18:00,44.8,38.0,29.95,West,281,1.0,4.0,77,0.00,,,0.00,VWS V15.00,2013-12-21 09:18:00,
2013-12-21 04:20:00,46.3,38.5,29.96,West,279,3.0,4.0,74,0.00,,,0.00,VWS V15.00,2013-12-21 09:20:00,
2013-12-21 04:23:00,44.9,38.1,29.95,West,281,1.0,3.0,77,0.00,,,0.00,VWS V15.00,2013-12-21 09:23:00,
2013-12-21 04:28:00,45.0,38.2,29.95,West,277,5.0,5.0,77,0.00,,,0.00,VWS V15.00,2013-12-21 09:28:00,
2013-12-21 04:30:00,46.2,38.7,29.96,West,279,1.0,6.0,75,0.00,,,0.00,VWS V15.00,2013-12-21 09:30:00,
2013-12-21 04:33:00,45.3,38.5,29.95,West,272,3.0,3.0,77,0.00,,,0.00,VWS V15.00,2013-12-21 09:33:00,
2013-12-21 04:38:00,45.7,38.6,29.95,West,281,3.0,6.0,76,0.00,,,0.00,VWS V15.00,2013-12-21 09:38:00,
2013-12-21 04:40:00,46.0,38.5,29.96,WNW,286,0.0,6.0,75,0.00,,,0.00,VWS V15.00,2013-12-21 09:40:00,
2013-12-21 04:43:00,46.0,38.5,29.95,West,273,4.0,4.0,75,0.00,,,0.00,VWS V15.00,2013-12-21 09:43:00,
2013-12-21 04:48:00,46.1,38.6,29.95,West,274,1.0,5.0,75,0.00,,,0.00,VWS V15.00,2013-12-21 09:48:00,
2013-12-21 04:50:00,45.7,38.2,29.96,WNW,286,0.0,2.0,75,0.00,,,0.00,VWS V15.00,2013-12-21 09:50:00,
2013-12-21 04:53:00,46.3,38.8,29.95,WNW,292,4.0,4.0,75,0.00,,,0.00,VWS V15.00,2013-12-21 09:53:00,
2013-12-21 04:58:00,46.5,39.0,29.95,West,273,4.0,6.0,75,0.00,,,0.00,VWS V15.00,2013-12-21 09:58:00,
2013-12-21 05:00:00,45.3,38.2,29.95,WNW,286,0.0,3.0,76,0.00,,,0.00,VWS V15.00,2013-12-21 10:00:00,
2013-12-21 05:03:00,46.6,38.8,29.95,West,273,3.0,3.0,74,0.00,,,0.00,VWS V15.00,2013-12-21 10:03:00,
2013-12-21 05:08:00,46.5,38.7,29.95,West,273,4.0,6.0,74,0.00,,,0.00,VWS V15.00,2013-12-21 10:08:00,
2013-12-21 05:10:00,44.9,38.1,29.95,WNW,286,2.0,3.0,77,0.00,,,0.00,VWS V15.00,2013-12-21 10:10:00,
2013-12-21 05:13:00,46.5,38.7,29.95,WSW,258,0.0,1.0,74,0.00,,,0.00,VWS V15.00,2013-12-21 10:13:00,
2013-12-21 05:18:00,46.4,38.6,29.96,West,269,4.0,4.0,74,0.00,,,0.00,VWS V15.00,2013-12-21 10:18:00,
2013-12-21 05:20:00,44.6,38.2,29.95,WNW,292,0.0,2.0,78,0.00,,,0.00,VWS V15.00,2013-12-21 10:20:00,
2013-12-21 05:22:00,46.3,38.8,29.96,West,279,1.0,3.0,75,0.00,,,0.00,VWS V15.00,2013-12-21 10:22:00,
2013-12-21 05:27:00,46.3,38.8,29.96,West,265,4.0,6.0,75,0.00,,,0.00,VWS V15.00,2013-12-21 10:27:00,
2013-12-21 05:30:00,44.4,38.0,29.95,West,280,2.0,5.0,78,0.00,,,0.00,VWS V15.00,2013-12-21 10:30:00,
2013-12-21 05:32:00,46.2,38.7,29.96,West,279,2.0,2.0,75,0.00,,,0.00,VWS V15.00,2013-12-21 10:32:00,
2013-12-21 05:37:00,46.1,38.6,29.96,WSW,239,2.0,6.0,75,0.00,,,0.00,VWS V15.00,2013-12-21 10:37:00,
2013-12-21 05:40:00,44.1,38.0,29.95,West,280,3.0,3.0,79,0.00,,,0.00,VWS V15.00,2013-12-21 10:40:00,
2013-12-21 05:42:00,46.0,38.5,29.96,WNW,286,0.0,0.0,75,0.00,,,0.00,VWS V15.00,2013-12-21 10:42:00,
2013-12-21 05:47:00,45.9,38.4,29.96,WNW,286,1.0,2.0,75,0.00,,,0.00,VWS V15.00,2013-12-21 10:47:00,
2013-12-21 05:50:00,44.2,38.4,29.96,West,281,0.0,3.0,80,0.00,,,0.00,VWS V15.00,2013-12-21 10:50:00,
2013-12-21 05:52:00,45.7,38.2,29.96,WNW,286,2.0,2.0,75,0.00,,,0.00,VWS V15.00,2013-12-21 10:52:00,
2013-12-21 05:57:00,45.5,38.0,29.96,WNW,287,0.0,2.0,75,0.00,,,0.00,VWS V15.00,2013-12-21 10:57:00,
2013-12-21 06:00:00,44.2,38.8,29.96,WNW,292,0.0,4.0,81,0.00,,,0.00,VWS V15.00,2013-12-21 11:00:00,
2013-12-21 06:02:00,45.3,38.2,29.95,WNW,286,0.0,0.0,76,0.00,,,0.00,VWS V15.00,2013-12-21 11:02:00,
2013-12-21 06:07:00,45.0,38.2,29.95,WNW,286,1.0,3.0,77,0.00,,,0.00,VWS V15.00,2013-12-21 11:07:00,
2013-12-21 06:10:00,44.1,38.7,29.96,WNW,292,0.0,2.0,81,0.00,,,0.00,VWS V15.00,2013-12-21 11:10:00,
2013-12-21 06:12:00,44.9,38.1,29.95,WNW,286,0.0,2.0,77,0.00,,,0.00,VWS V15.00,2013-12-21 11:12:00,
2013-12-21 06:17:00,44.7,38.3,29.95,WNW,286,0.0,2.0,78,0.00,,,0.00,VWS V15.00,2013-12-21 11:17:00,
2013-12-21 06:20:00,44.1,39.0,29.96,WNW,288,2.0,3.0,82,0.00,,,0.00,VWS V15.00,2013-12-21 11:20:00,
2013-12-21 06:22:00,44.6,38.2,29.95,WNW,293,0.0,1.0,78,0.00,,,0.00,VWS V15.00,2013-12-21 11:22:00,
2013-12-21 06:27:00,44.6,38.2,29.95,West,281,3.0,3.0,78,0.00,,,0.00,VWS V15.00,2013-12-21 11:27:00,
2013-12-21 06:30:00,44.4,39.6,29.97,WSW,244,0.0,6.0,83,0.00,,,0.00,VWS V15.00,2013-12-21 11:30:00,
2013-12-21 06:32:00,44.4,38.0,29.95,West,280,0.0,2.0,78,0.00,,,0.00,VWS V15.00,2013-12-21 11:32:00,
2013-12-21 06:37:00,44.2,38.1,29.95,West,280,3.0,3.0,79,0.00,,,0.00,VWS V15.00,2013-12-21 11:37:00,
2013-12-21 06:40:00,45.1,40.6,29.97,West,259,3.0,6.0,84,0.00,,,0.00,VWS V15.00,2013-12-21 11:40:00,
2013-12-21 06:42:00,44.1,38.0,29.95,West,280,1.0,3.0,79,0.00,,,0.00,VWS V15.00,2013-12-21 11:42:00,
2013-12-21 06:47:00,44.1,38.3,29.96,West,281,0.0,3.0,80,0.00,,,0.00,VWS V15.00,2013-12-21 11:47:00,
2013-12-21 06:50:00,46.1,41.5,29.98,SSW,193,4.0,8.0,84,0.00,,,0.00,VWS V15.00,2013-12-21 11:50:00,
2013-12-21 06:52:00,44.1,38.3,29.96,West,281,0.0,0.0,80,0.00,,,0.00,VWS V15.00,2013-12-21 11:52:00,
2013-12-21 06:57:00,44.2,38.8,29.96,WNW,284,0.0,3.0,81,0.00,,,0.00,VWS V15.00,2013-12-21 11:57:00,
2013-12-21 07:00:00,47.0,42.1,29.98,West,265,4.0,9.0,83,0.00,,,0.00,VWS V15.00,2013-12-21 12:00:00,
2013-12-21 07:02:00,44.2,38.8,29.96,WNW,292,0.0,0.0,81,0.00,,,0.00,VWS V15.00,2013-12-21 12:02:00,
2013-12-21 07:07:00,44.2,38.8,29.96,WNW,292,0.0,2.0,81,0.00,,,0.00,VWS V15.00,2013-12-21 12:07:00,
2013-12-21 07:10:00,47.8,42.6,29.98,West,262,8.0,9.0,82,0.00,,,0.00,VWS V15.00,2013-12-21 12:10:00,
2013-12-21 07:12:00,44.1,38.7,29.96,WNW,292,0.0,0.0,81,0.00,,,0.00,VWS V15.00,2013-12-21 12:12:00,
2013-12-21 07:17:00,44.1,38.7,29.96,WNW,292,0.0,1.0,81,0.00,,,0.00,VWS V15.00,2013-12-21 12:17:00,
2013-12-21 07:20:00,48.3,42.8,29.97,WNW,289,4.0,8.0,81,0.00,,,0.00,VWS V15.00,2013-12-21 12:20:00,
2013-12-21 07:22:00,44.1,39.0,29.96,WNW,288,3.0,3.0,82,0.00,,,0.00,VWS V15.00,2013-12-21 12:22:00,
2013-12-21 07:27:00,44.3,39.5,29.96,West,272,1.0,6.0,83,0.00,,,0.00,VWS V15.00,2013-12-21 12:27:00,
2013-12-21 07:30:00,48.8,43.2,29.97,West,262,0.0,7.0,81,0.00,,,0.00,VWS V15.00,2013-12-21 12:30:00,
2013-12-21 07:32:00,44.4,39.6,29.97,WSW,244,0.0,0.0,83,0.00,,,0.00,VWS V15.00,2013-12-21 12:32:00,
2013-12-21 07:37:00,44.5,39.7,29.97,West,267,5.0,6.0,83,0.00,,,0.00,VWS V15.00,2013-12-21 12:37:00,
2013-12-21 07:40:00,49.0,43.1,29.97,West,275,4.0,7.0,80,0.00,,,0.00,VWS V15.00,2013-12-21 12:40:00,
2013-12-21 07:42:00,45.1,40.6,29.97,West,259,1.0,3.0,84,0.00,,,0.00,VWS V15.00,2013-12-21 12:42:00,
2013-12-21 07:47:00,45.7,41.2,29.98,West,267,1.0,8.0,84,0.00,,,0.00,VWS V15.00,2013-12-21 12:47:00,
2013-12-21 07:50:00,49.2,43.3,29.97,West,278,7.0,7.0,80,0.00,,,0.00,VWS V15.00,2013-12-21 12:50:00,
2013-12-21 07:52:00,46.1,41.5,29.98,SSW,193,3.0,4.0,84,0.00,,,0.00,VWS V15.00,2013-12-21 12:52:00,
2013-12-21 07:57:00,46.5,41.6,29.98,WSW,253,5.0,6.0,83,0.00,,,0.00,VWS V15.00,2013-12-21 12:57:00,
2013-12-21 08:00:00,49.5,43.3,29.98,West,267,0.0,7.0,79,0.00,,,0.00,VWS V15.00,2013-12-21 13:00:00,
2013-12-21 08:02:00,47.0,42.1,29.98,West,265,4.0,9.0,83,0.00,,,0.00,VWS V15.00,2013-12-21 13:02:00,
2013-12-21 08:07:00,47.4,42.5,29.98,West,263,2.0,9.0,83,0.00,,,0.00,VWS V15.00,2013-12-21 13:07:00,
2013-12-21 08:10:00,49.9,43.7,29.98,West,268,0.0,3.0,79,0.00,,,0.00,VWS V15.00,2013-12-21 13:10:00,
2013-12-21 08:12:00,47.8,42.6,29.98,West,264,7.0,8.0,82,0.00,,,0.00,VWS V15.00,2013-12-21 13:12:00,
2013-12-21 08:17:00,48.1,42.9,29.97,West,269,5.0,8.0,82,0.00,,,0.00,VWS V15.00,2013-12-21 13:17:00,
2013-12-21 08:20:00,50.3,43.7,29.97,West,268,1.0,3.0,78,0.00,,,0.00,VWS V15.00,2013-12-21 13:20:00,
2013-12-21 08:22:00,48.3,42.8,29.97,WNW,289,4.0,8.0,81,0.00,,,0.00,VWS V15.00,2013-12-21 13:22:00,
2013-12-21 08:27:00,48.6,43.0,29.97,WSW,257,7.0,7.0,81,0.00,,,0.00,VWS V15.00,2013-12-21 13:27:00,
2013-12-21 08:30:00,51.0,44.0,29.98,West,277,5.0,5.0,77,0.00,,,0.00,VWS V15.00,2013-12-21 13:30:00,
2013-12-21 08:32:00,48.8,43.2,29.97,West,262,0.0,7.0,81,0.00,,,0.00,VWS V15.00,2013-12-21 13:32:00,
2013-12-21 08:37:00,48.9,43.0,29.97,West,265,1.0,5.0,80,0.00,,,0.00,VWS V15.00,2013-12-21 13:37:00,
2013-12-21 08:40:00,51.7,44.4,29.98,WNW,282,0.0,5.0,76,0.00,,,0.00,VWS V15.00,2013-12-21 13:40:00,
2013-12-21 08:42:00,49.0,43.1,29.97,West,275,4.0,7.0,80,0.00,,,0.00,VWS V15.00,2013-12-21 13:42:00,
2013-12-21 08:47:00,49.1,42.9,29.97,West,267,1.0,5.0,79,0.00,,,0.00,VWS V15.00,2013-12-21 13:47:00,
2013-12-21 08:50:00,52.4,44.4,29.98,WSW,254,2.0,7.0,74,0.00,,,0.00,VWS V15.00,2013-12-21 13:50:00,
2013-12-21 08:52:00,49.2,43.3,29.97,West,278,7.0,7.0,80,0.00,,,0.00,VWS V15.00,2013-12-21 13:52:00,
2013-12-21 08:57:00,49.4,43.2,29.97,West,278,2.0,7.0,79,0.00,,,0.00,VWS V15.00,2013-12-21 13:57:00,
2013-12-21 09:00:00,53.0,44.6,29.98,West,277,6.0,7.0,73,0.00,,,0.00,VWS V15.00,2013-12-21 14:00:00,
2013-12-21 09:02:00,49.5,43.3,29.98,West,267,1.0,7.0,79,0.00,,,0.00,VWS V15.00,2013-12-21 14:02:00,
2013-12-21 09:07:00,49.6,43.4,29.98,West,268,0.0,2.0,79,0.00,,,0.00,VWS V15.00,2013-12-21 14:07:00,
2013-12-21 09:10:00,53.3,44.5,29.98,WSW,249,4.0,6.0,72,0.00,,,0.00,VWS V15.00,2013-12-21 14:10:00,
2013-12-21 09:12:00,49.9,43.7,29.98,West,268,0.0,3.0,79,0.00,,,0.00,VWS V15.00,2013-12-21 14:12:00,
2013-12-21 09:17:00,50.0,43.4,29.97,West,268,0.0,2.0,78,0.00,,,0.00,VWS V15.00,2013-12-21 14:17:00,
2013-12-21 09:20:00,53.2,44.0,29.98,WSW,254,0.0,6.0,71,0.00,,,0.00,VWS V15.00,2013-12-21 14:20:00,
2013-12-21 09:22:00,50.3,43.7,29.97,West,268,1.0,3.0,78,0.00,,,0.00,VWS V15.00,2013-12-21 14:22:00,
2013-12-21 09:27:00,50.7,44.1,29.97,West,277,0.0,3.0,78,0.00,,,0.00,VWS V15.00,2013-12-21 14:27:00,
2013-12-21 09:30:00,53.0,43.9,29.98,WSW,247,0.0,5.0,71,0.00,,,0.00,VWS V15.00,2013-12-21 14:30:00,
2013-12-21 09:32:00,51.0,44.0,29.98,West,277,5.0,5.0,77,0.00,,,0.00,VWS V15.00,2013-12-21 14:32:00,
2013-12-21 09:37:00,51.4,44.1,29.98,West,270,0.0,5.0,76,0.00,,,0.00,VWS V15.00,2013-12-21 14:37:00,
2013-12-21 09:40:00,53.0,44.2,29.98,WSW,258,5.0,7.0,72,0.00,,,0.00,VWS V15.00,2013-12-21 14:40:00,
2013-12-21 09:42:00,51.7,44.4,29.98,WNW,282,0.0,5.0,76,0.00,,,0.00,VWS V15.00,2013-12-21 14:42:00,
2013-12-21 09:47:00,52.1,44.4,29.98,West,266,0.0,6.0,75,0.00,,,0.00,VWS V15.00,2013-12-21 14:47:00,
2013-12-21 09:50:00,53.3,44.2,29.97,WNW,302,1.0,6.0,71,0.00,,,0.00,VWS V15.00,2013-12-21 14:50:00,
2013-12-21 09:52:00,52.4,44.4,29.98,WSW,254,2.0,7.0,74,0.00,,,0.00,VWS V15.00,2013-12-21 14:52:00,
2013-12-21 09:57:00,52.7,44.3,29.98,West,279,0.0,7.0,73,0.00,,,0.00,VWS V15.00,2013-12-21 14:57:00,
2013-12-21 10:00:00,53.5,44.3,29.96,West,267,2.0,7.0,71,0.00,,,0.00,VWS V15.00,2013-12-21 15:00:00,
2013-12-21 10:02:00,53.0,44.6,29.98,West,274,5.0,7.0,73,0.00,,,0.00,VWS V15.00,2013-12-21 15:02:00,
2013-12-21 10:07:00,53.1,44.3,29.98,West,263,2.0,6.0,72,0.00,,,0.00,VWS V15.00,2013-12-21 15:07:00,
2013-12-21 10:10:00,53.7,44.2,29.96,WSW,242,0.0,7.0,70,0.00,,,0.00,VWS V15.00,2013-12-21 15:10:00,
2013-12-21 10:12:00,53.3,44.5,29.98,West,267,3.0,6.0,72,0.00,,,0.00,VWS V15.00,2013-12-21 15:12:00,
2013-12-21 10:17:00,53.3,44.2,29.98,WNW,284,2.0,6.0,71,0.00,,,0.00,VWS V15.00,2013-12-21 15:17:00,
2013-12-21 10:20:00,54.1,44.2,29.94,West,271,0.0,6.0,69,0.00,,,0.00,VWS V15.00,2013-12-21 15:20:00,
2013-12-21 10:22:00,53.2,44.0,29.98,WSW,254,0.0,6.0,71,0.00,,,0.00,VWS V15.00,2013-12-21 15:22:00,
2013-12-21 10:27:00,53.2,44.0,29.98,West,264,0.0,4.0,71,0.00,,,0.00,VWS V15.00,2013-12-21 15:27:00,
2013-12-21 10:30:00,54.7,44.7,29.94,West,263,1.0,5.0,69,0.00,,,0.00,VWS V15.00,2013-12-21 15:30:00,
2013-12-21 10:32:00,53.0,43.9,29.98,WSW,247,0.0,5.0,71,0.00,,,0.00,VWS V15.00,2013-12-21 15:32:00,
2013-12-21 10:37:00,53.0,44.2,29.98,West,281,0.0,7.0,72,0.00,,,0.00,VWS V15.00,2013-12-21 15:37:00,
2013-12-21 10:40:00,55.3,44.9,29.94,SW,228,0.0,3.0,68,0.00,,,0.00,VWS V15.00,2013-12-21 15:40:00,
2013-12-21 10:42:00,53.0,44.2,29.98,SW,216,3.0,7.0,72,0.00,,,0.00,VWS V15.00,2013-12-21 15:42:00,
2013-12-21 10:47:00,53.1,44.3,29.97,West,281,3.0,6.0,72,0.00,,,0.00,VWS V15.00,2013-12-21 15:47:00,
2013-12-21 10:50:00,55.7,44.5,29.94,SW,219,1.0,4.0,66,0.00,,,0.00,VWS V15.00,2013-12-21 15:50:00,
2013-12-21 10:52:00,53.2,44.0,29.97,WNW,302,1.0,6.0,71,0.00,,,0.00,VWS V15.00,2013-12-21 15:52:00,
2013-12-21 10:57:00,53.4,44.2,29.97,West,275,6.0,6.0,71,0.00,,,0.00,VWS V15.00,2013-12-21 15:57:00,
2013-12-21 11:00:00,55.9,44.7,29.94,West,262,0.0,4.0,66,0.00,,,0.00,VWS V15.00,2013-12-21 16:00:00,
2013-12-21 11:02:00,53.5,44.3,29.96,West,267,3.0,7.0,71,0.00,,,0.00,VWS V15.00,2013-12-21 16:02:00,
2013-12-21 11:07:00,53.6,44.1,29.96,West,272,4.0,6.0,70,0.00,,,0.00,VWS V15.00,2013-12-21 16:07:00,
2013-12-21 11:10:00,56.1,44.9,29.94,WNW,292,0.0,3.0,66,0.00,,,0.00,VWS V15.00,2013-12-21 16:10:00,
2013-12-21 11:12:00,53.7,44.2,29.96,WSW,242,0.0,7.0,70,0.00,,,0.00,VWS V15.00,2013-12-21 16:12:00,
2013-12-21 11:17:00,54.0,44.5,29.94,SW,233,4.0,6.0,70,0.00,,,0.00,VWS V15.00,2013-12-21 16:17:00,
2013-12-21 11:20:00,56.2,45.0,29.92,West,280,2.0,5.0,66,0.00,,,0.00,VWS V15.00,2013-12-21 16:20:00,
2013-12-21 11:22:00,54.1,44.2,29.94,West,271,0.0,6.0,69,0.00,,,0.00,VWS V15.00,2013-12-21 16:22:00,
2013-12-21 11:27:00,54.4,44.5,29.94,West,280,3.0,5.0,69,0.00,,,0.00,VWS V15.00,2013-12-21 16:27:00,
2013-12-21 11:30:00,56.0,44.8,29.91,West,267,4.0,7.0,66,0.00,,,0.00,VWS V15.00,2013-12-21 16:30:00,
2013-12-21 11:32:00,54.7,44.7,29.94,West,263,1.0,5.0,69,0.00,,,0.00,VWS V15.00,2013-12-21 16:32:00,
2013-12-21 11:37:00,55.0,44.7,29.94,SW,228,0.0,2.0,68,0.00,,,0.00,VWS V15.00,2013-12-21 16:37:00,
2013-12-21 11:40:00,55.7,44.5,29.91,SW,219,0.0,7.0,66,0.00,,,0.00,VWS V15.00,2013-12-21 16:40:00,
2013-12-21 11:42:00,55.3,44.9,29.94,SW,228,2.0,3.0,68,0.00,,,0.00,VWS V15.00,2013-12-21 16:42:00,
2013-12-21 11:47:00,55.5,44.7,29.94,SW,219,0.0,4.0,67,0.00,,,0.00,VWS V15.00,2013-12-21 16:47:00,
2013-12-21 11:50:00,55.3,43.8,29.91,WSW,245,0.0,3.0,65,0.00,,,0.00,VWS V15.00,2013-12-21 16:50:00,
2013-12-21 11:52:00,55.7,44.5,29.94,SW,219,0.0,4.0,66,0.00,,,0.00,VWS V15.00,2013-12-21 16:52:00,
2013-12-21 11:57:00,55.8,44.6,29.94,SW,227,0.0,4.0,66,0.00,,,0.00,VWS V15.00,2013-12-21 16:57:00,
2013-12-21 12:00:00,55.0,44.3,29.91,South,186,3.0,5.0,67,0.00,,,0.00,VWS V15.00,2013-12-21 17:00:00,
2013-12-21 12:02:00,56.0,44.8,29.94,West,262,0.0,4.0,66,0.00,,,0.00,VWS V15.00,2013-12-21 17:02:00,
2013-12-21 12:07:00,56.0,44.8,29.94,West,262,0.0,1.0,66,0.00,,,0.00,VWS V15.00,2013-12-21 17:07:00,
2013-12-21 12:10:00,54.6,44.7,29.91,South,187,0.0,5.0,69,0.00,,,0.00,VWS V15.00,2013-12-21 17:10:00,
2013-12-21 12:12:00,56.1,44.9,29.94,WNW,292,1.0,3.0,66,0.00,,,0.00,VWS V15.00,2013-12-21 17:12:00,
2013-12-21 12:17:00,56.2,45.0,29.92,WNW,292,4.0,4.0,66,0.00,,,0.00,VWS V15.00,2013-12-21 17:17:00,
2013-12-21 12:20:00,54.8,45.2,29.90,West,269,2.0,6.0,70,0.00,,,0.00,VWS V15.00,2013-12-21 17:20:00,
2013-12-21 12:22:00,56.2,45.0,29.92,West,280,3.0,5.0,66,0.00,,,0.00,VWS V15.00,2013-12-21 17:22:00,
2013-12-21 12:27:00,56.1,44.9,29.92,WSW,246,1.0,5.0,66,0.00,,,0.00,VWS V15.00,2013-12-21 17:27:00,
2013-12-21 12:30:00,55.2,46.0,29.91,SSW,192,0.0,7.0,71,0.00,,,0.00,VWS V15.00,2013-12-21 17:30:00,
2013-12-21 12:32:00,56.0,44.8,29.91,West,271,7.0,7.0,66,0.00,,,0.00,VWS V15.00,2013-12-21 17:32:00,
2013-12-21 12:37:00,55.9,44.7,29.91,WSW,241,4.0,7.0,66,0.00,,,0.00,VWS V15.00,2013-12-21 17:37:00,
2013-12-21 12:40:00,55.0,46.2,29.91,WSW,258,3.0,5.0,72,0.00,,,0.00,VWS V15.00,2013-12-21 17:40:00,
2013-12-21 12:42:00,55.7,44.5,29.91,SW,219,0.0,7.0,66,0.00,,,0.00,VWS V15.00,2013-12-21 17:42:00,
2013-12-21 12:47:00,55.5,43.9,29.91,WSW,245,0.0,3.0,65,0.00,,,0.00,VWS V15.00,2013-12-21 17:47:00,
2013-12-21 12:50:00,54.9,46.1,29.91,West,259,0.0,5.0,72,0.00,,,0.00,VWS V15.00,2013-12-21 17:50:00,
2013-12-21 12:52:00,55.4,43.8,29.91,WSW,245,0.0,3.0,65,0.00,,,0.00,VWS V15.00,2013-12-21 17:52:00,
2013-12-21 12:57:00,55.2,44.0,29.91,WSW,244,2.0,2.0,66,0.00,,,0.00,VWS V15.00,2013-12-21 17:57:00,
2013-12-21 13:00:00,54.6,45.8,29.90,WNW,290,0.0,5.0,72,0.00,,,0.00,VWS V15.00,2013-12-21 18:00:00,
2013-12-21 13:02:00,55.0,44.3,29.91,South,186,4.0,4.0,67,0.00,,,0.00,VWS V15.00,2013-12-21 18:02:00,
2013-12-21 13:07:00,54.8,44.8,29.91,South,187,0.0,5.0,69,0.00,,,0.00,VWS V15.00,2013-12-21 18:07:00,
2013-12-21 13:10:00,54.5,46.4,29.90,West,273,0.0,5.0,74,0.00,,,0.00,VWS V15.00,2013-12-21 18:10:00,
2013-12-21 13:12:00,54.6,44.7,29.91,South,187,0.0,5.0,69,0.00,,,0.00,VWS V15.00,2013-12-21 18:12:00,
2013-12-21 13:17:00,54.7,45.1,29.90,South,187,0.0,2.0,70,0.00,,,0.00,VWS V15.00,2013-12-21 18:17:00,
2013-12-21 13:20:00,54.5,46.4,29.91,West,264,1.0,4.0,74,0.00,,,0.00,VWS V15.00,2013-12-21 18:20:00,
2013-12-21 13:22:00,54.8,45.2,29.90,SW,219,2.0,3.0,70,0.00,,,0.00,VWS V15.00,2013-12-21 18:22:00,
2013-12-21 13:27:00,55.0,45.8,29.90,West,265,3.0,7.0,71,0.00,,,0.00,VWS V15.00,2013-12-21 18:27:00,
2013-12-21 13:30:00,54.7,46.6,29.91,WNW,284,3.0,4.0,74,0.00,,,0.00,VWS V15.00,2013-12-21 18:30:00,
2013-12-21 13:32:00,55.1,45.9,29.91,SSW,192,2.0,7.0,71,0.00,,,0.00,VWS V15.00,2013-12-21 18:32:00,
2013-12-21 13:37:00,55.1,45.9,29.91,SSW,200,1.0,5.0,71,0.00,,,0.00,VWS V15.00,2013-12-21 18:37:00,
2013-12-21 13:40:00,54.9,46.8,29.91,WNW,284,0.0,3.0,74,0.00,,,0.00,VWS V15.00,2013-12-21 18:40:00,
2013-12-21 13:42:00,54.9,46.1,29.91,WSW,237,1.0,5.0,72,0.00,,,0.00,VWS V15.00,2013-12-21 18:42:00,
2013-12-21 13:47:00,55.0,46.2,29.91,West,259,0.0,5.0,72,0.00,,,0.00,VWS V15.00,2013-12-21 18:47:00,
2013-12-21 13:50:00,54.8,46.7,29.91,WSW,243,2.0,4.0,74,0.00,,,0.00,VWS V15.00,2013-12-21 18:50:00,
2013-12-21 13:52:00,54.9,46.1,29.91,West,259,0.0,5.0,72,0.00,,,0.00,VWS V15.00,2013-12-21 18:52:00,
2013-12-21 13:57:00,54.9,46.1,29.91,WNW,292,0.0,4.0,72,0.00,,,0.00,VWS V15.00,2013-12-21 18:57:00,
2013-12-21 14:00:00,54.8,46.7,29.91,WSW,244,0.0,4.0,74,0.00,,,0.00,VWS V15.00,2013-12-21 19:00:00,
2013-12-21 14:02:00,54.6,45.8,29.90,WNW,290,0.0,5.0,72,0.00,,,0.00,VWS V15.00,2013-12-21 19:02:00,
2013-12-21 14:07:00,54.6,46.1,29.90,WNW,287,1.0,5.0,73,0.00,,,0.00,VWS V15.00,2013-12-21 19:07:00,
2013-12-21 14:10:00,54.7,46.6,29.91,WSW,245,2.0,2.0,74,0.00,,,0.00,VWS V15.00,2013-12-21 19:10:00,
2013-12-21 14:12:00,54.6,46.5,29.90,West,273,0.0,5.0,74,0.00,,,0.00,VWS V15.00,2013-12-21 19:12:00,
2013-12-21 14:17:00,54.5,46.4,29.91,West,263,4.0,4.0,74,0.00,,,0.00,VWS V15.00,2013-12-21 19:17:00,
2013-12-21 14:20:00,54.5,46.4,29.91,West,270,0.0,4.0,74,0.00,,,0.00,VWS V15.00,2013-12-21 19:20:00,
2013-12-21 14:22:00,54.5,46.4,29.91,West,264,1.0,4.0,74,0.00,,,0.00,VWS V15.00,2013-12-21 19:22:00,
2013-12-21 14:27:00,54.6,46.5,29.91,West,264,0.0,2.0,74,0.00,,,0.00,VWS V15.00,2013-12-21 19:27:00,
2013-12-21 14:30:00,54.3,46.6,29.91,West,278,0.0,3.0,75,0.00,,,0.00,VWS V15.00,2013-12-21 19:30:00,
2013-12-21 14:32:00,54.7,46.6,29.91,WNW,282,3.0,4.0,74,0.00,,,0.00,VWS V15.00,2013-12-21 19:32:00,
2013-12-21 14:37:00,54.8,46.7,29.91,WNW,284,0.0,3.0,74,0.00,,,0.00,VWS V15.00,2013-12-21 19:37:00,
2013-12-21 14:40:00,54.1,46.4,29.91,SW,235,0.0,2.0,75,0.00,,,0.00,VWS V15.00,2013-12-21 19:40:00,
2013-12-21 14:42:00,54.8,46.7,29.91,WNW,284,0.0,3.0,74,0.00,,,0.00,VWS V15.00,2013-12-21 19:42:00,
2013-12-21 14:47:00,54.8,46.7,29.91,WNW,284,0.0,1.0,74,0.00,,,0.00,VWS V15.00,2013-12-21 19:47:00,
2013-12-21 14:50:00,53.9,46.9,29.92,WSW,253,0.0,2.0,77,0.00,,,0.00,VWS V15.00,2013-12-21 19:50:00,
2013-12-21 14:52:00,54.8,46.7,29.91,SW,233,2.0,3.0,74,0.00,,,0.00,VWS V15.00,2013-12-21 19:52:00,
2013-12-21 14:57:00,54.8,46.7,29.91,WSW,237,4.0,4.0,74,0.00,,,0.00,VWS V15.00,2013-12-21 19:57:00,
2013-12-21 15:00:00,53.4,46.7,29.93,West,271,1.0,4.0,78,0.00,,,0.00,VWS V15.00,2013-12-21 20:00:00,
2013-12-21 15:02:00,54.8,46.7,29.91,WSW,244,1.0,4.0,74,0.00,,,0.00,VWS V15.00,2013-12-21 20:02:00,
2013-12-21 15:07:00,54.8,46.7,29.91,WSW,244,0.0,1.0,74,0.00,,,0.00,VWS V15.00,2013-12-21 20:07:00,
2013-12-21 15:10:00,53.1,46.4,29.93,West,271,0.0,1.0,78,0.00,,,0.00,VWS V15.00,2013-12-21 20:10:00,
2013-12-21 15:12:00,54.7,46.6,29.91,WSW,244,0.0,2.0,74,0.00,,,0.00,VWS V15.00,2013-12-21 20:12:00,
2013-12-21 15:17:00,54.6,46.8,29.91,WNW,282,0.0,4.0,75,0.00,,,0.00,VWS V15.00,2013-12-21 20:17:00,
2013-12-21 15:20:00,52.5,45.8,29.94,West,271,0.0,1.0,78,0.00,,,0.00,VWS V15.00,2013-12-21 20:20:00,
2013-12-21 15:22:00,54.5,46.4,29.91,West,270,0.0,4.0,74,0.00,,,0.00,VWS V15.00,2013-12-21 20:22:00,
2013-12-21 15:27:00,54.5,46.4,29.91,West,270,2.0,2.0,74,0.00,,,0.00,VWS V15.00,2013-12-21 20:27:00,
2013-12-21 15:30:00,51.9,45.3,29.93,West,271,0.0,0.0,78,0.00,,,0.00,VWS V15.00,2013-12-21 20:30:00,
2013-12-21 15:32:00,54.4,46.7,29.91,West,278,0.0,3.0,75,0.00,,,0.00,VWS V15.00,2013-12-21 20:32:00,
2013-12-21 15:37:00,54.3,46.9,29.91,SW,235,1.0,2.0,76,0.00,,,0.00,VWS V15.00,2013-12-21 20:37:00,
2013-12-21 15:40:00,51.3,45.0,29.93,West,271,0.0,0.0,79,0.00,,,0.00,VWS V15.00,2013-12-21 20:40:00,
2013-12-21 15:42:00,54.1,46.4,29.91,SW,235,0.0,2.0,75,0.00,,,0.00,VWS V15.00,2013-12-21 20:42:00,
2013-12-21 15:47:00,54.0,46.6,29.92,SW,235,0.0,1.0,76,0.00,,,0.00,VWS V15.00,2013-12-21 20:47:00,
2013-12-21 15:50:00,50.3,44.0,29.93,West,271,0.0,0.0,79,0.00,,,0.00,VWS V15.00,2013-12-21 20:50:00,
2013-12-21 15:52:00,53.9,46.9,29.92,WSW,253,1.0,2.0,77,0.00,,,0.00,VWS V15.00,2013-12-21 20:52:00,
2013-12-21 15:57:00,53.7,46.7,29.92,West,261,0.0,1.0,77,0.00,,,0.00,VWS V15.00,2013-12-21 20:57:00,
2013-12-21 16:00:00,49.7,43.8,29.93,West,271,0.0,0.0,80,0.00,,,0.00,VWS V15.00,2013-12-21 21:00:00,
2013-12-21 16:02:00,53.5,46.8,29.93,West,271,1.0,4.0,78,0.00,,,0.00,VWS V15.00,2013-12-21 21:02:00,
2013-12-21 16:07:00,53.3,46.6,29.93,West,271,0.0,1.0,78,0.00,,,0.00,VWS V15.00,2013-12-21 21:07:00,
2013-12-21 16:10:00,48.8,43.2,29.93,West,271,0.0,0.0,81,0.00,,,0.00,VWS V15.00,2013-12-21 21:10:00,
2013-12-21 16:12:00,53.1,46.4,29.93,West,271,0.0,1.0,78,0.00,,,0.00,VWS V15.00,2013-12-21 21:12:00,
2013-12-21 16:17:00,52.9,46.2,29.94,West,271,0.0,1.0,78,0.00,,,0.00,VWS V15.00,2013-12-21 21:17:00,
2013-12-21 16:20:00,48.2,43.0,29.93,West,271,0.0,0.0,82,0.00,,,0.00,VWS V15.00,2013-12-21 21:20:00,
2013-12-21 16:22:00,52.5,45.8,29.94,West,271,0.0,1.0,78,0.00,,,0.00,VWS V15.00,2013-12-21 21:22:00,
2013-12-21 16:27:00,52.2,45.6,29.94,West,271,0.0,0.0,78,0.00,,,0.00,VWS V15.00,2013-12-21 21:27:00,
2013-12-21 16:30:00,47.8,43.2,29.93,West,271,0.0,0.0,84,0.00,,,0.00,VWS V15.00,2013-12-21 21:30:00,
2013-12-21 16:32:00,52.0,45.4,29.93,West,271,0.0,0.0,78,0.00,,,0.00,VWS V15.00,2013-12-21 21:32:00,
2013-12-21 16:37:00,51.7,45.1,29.93,West,271,0.0,0.0,78,0.00,,,0.00,VWS V15.00,2013-12-21 21:37:00,
2013-12-21 16:40:00,47.6,43.3,29.93,WNW,284,0.0,1.0,85,0.00,,,0.00,VWS V15.00,2013-12-21 21:40:00,
2013-12-21 16:42:00,51.3,45.0,29.93,West,271,0.0,0.0,79,0.00,,,0.00,VWS V15.00,2013-12-21 21:42:00,
2013-12-21 16:47:00,50.9,44.3,29.93,West,271,0.0,0.0,78,0.00,,,0.00,VWS V15.00,2013-12-21 21:47:00,
2013-12-21 16:50:00,47.4,43.4,29.94,WNW,284,0.0,1.0,86,0.00,,,0.00,VWS V15.00,2013-12-21 21:50:00,
2013-12-21 16:52:00,50.4,44.1,29.93,West,271,0.0,0.0,79,0.00,,,0.00,VWS V15.00,2013-12-21 21:52:00,
2013-12-21 16:57:00,50.1,44.2,29.93,West,271,0.0,0.0,80,0.00,,,0.00,VWS V15.00,2013-12-21 21:57:00,
2013-12-21 17:00:00,47.1,43.4,29.94,WNW,284,0.0,0.0,87,0.00,,,0.00,VWS V15.00,2013-12-21 22:00:00,
2013-12-21 17:02:00,49.7,43.8,29.93,West,271,0.0,0.0,80,0.00,,,0.00,VWS V15.00,2013-12-21 22:02:00,
2013-12-21 17:07:00,49.2,43.3,29.93,West,271,0.0,0.0,80,0.00,,,0.00,VWS V15.00,2013-12-21 22:07:00,
2013-12-21 17:10:00,46.9,43.5,29.94,WNW,284,0.0,1.0,88,0.00,,,0.00,VWS V15.00,2013-12-21 22:10:00,
2013-12-21 17:12:00,48.8,43.2,29.93,West,271,0.0,0.0,81,0.00,,,0.00,VWS V15.00,2013-12-21 22:12:00,
2013-12-21 17:17:00,48.6,43.4,29.93,West,271,0.0,0.0,82,0.00,,,0.00,VWS V15.00,2013-12-21 22:17:00,
2013-12-21 17:20:00,46.9,43.5,29.94,WNW,284,0.0,0.0,88,0.00,,,0.00,VWS V15.00,2013-12-21 22:20:00,
2013-12-21 17:22:00,48.3,43.1,29.93,West,271,0.0,0.0,82,0.00,,,0.00,VWS V15.00,2013-12-21 22:22:00,
2013-12-21 17:27:00,48.0,43.1,29.93,West,271,0.0,0.0,83,0.00,,,0.00,VWS V15.00,2013-12-21 22:27:00,
2013-12-21 17:30:00,47.9,45.4,29.93,WNW,282,1.0,3.0,91,0.00,,,0.00,VWS V15.00,2013-12-21 22:30:00,
2013-12-21 17:32:00,47.8,43.2,29.93,West,271,0.0,0.0,84,0.00,,,0.00,VWS V15.00,2013-12-21 22:32:00,
2013-12-21 17:37:00,47.7,43.1,29.93,West,271,0.0,0.0,84,0.00,,,0.00,VWS V15.00,2013-12-21 22:37:00,
2013-12-21 17:40:00,48.4,45.9,29.93,WNW,282,0.0,1.0,91,0.00,,,0.00,VWS V15.00,2013-12-21 22:40:00,
2013-12-21 17:42:00,47.6,43.3,29.93,West,271,0.0,0.0,85,0.00,,,0.00,VWS V15.00,2013-12-21 22:42:00,
2013-12-21 17:47:00,47.6,43.6,29.94,WNW,284,0.0,1.0,86,0.00,,,0.00,VWS V15.00,2013-12-21 22:47:00,
2013-12-21 17:50:00,48.9,46.4,29.94,WNW,282,0.0,2.0,91,0.00,,,0.00,VWS V15.00,2013-12-21 22:50:00,
2013-12-21 17:52:00,47.4,43.4,29.94,WNW,284,0.0,1.0,86,0.00,,,0.00,VWS V15.00,2013-12-21 22:52:00,
2013-12-21 17:57:00,47.3,43.3,29.94,WNW,284,0.0,0.0,86,0.00,,,0.00,VWS V15.00,2013-12-21 22:57:00,
2013-12-21 18:00:00,49.6,47.4,29.93,WNW,282,0.0,1.0,92,0.00,,,0.00,VWS V15.00,2013-12-21 23:00:00,
2013-12-21 18:01:00,47.2,43.5,29.94,WNW,284,0.0,0.0,87,0.00,,,0.00,VWS V15.00,2013-12-21 23:01:00,
2013-12-21 18:06:00,47.0,43.3,29.94,WNW,284,0.0,1.0,87,0.00,,,0.00,VWS V15.00,2013-12-21 23:06:00,
2013-12-21 18:10:00,50.3,48.1,29.93,WNW,282,0.0,3.0,92,0.00,,,0.00,VWS V15.00,2013-12-21 23:10:00,
2013-12-21 18:12:00,46.9,43.2,29.94,WNW,284,0.0,1.0,87,0.00,,,0.00,VWS V15.00,2013-12-21 23:12:00,
2013-12-21 18:17:00,46.9,43.5,29.94,WNW,284,0.0,0.0,88,0.00,,,0.00,VWS V15.00,2013-12-21 23:17:00,
2013-12-21 18:20:00,50.5,48.0,29.93,WNW,287,0.0,4.0,91,0.00,,,0.00,VWS V15.00,2013-12-21 23:20:00,
2013-12-21 18:22:00,46.9,43.5,29.94,WNW,284,0.0,0.0,88,0.00,,,0.00,VWS V15.00,2013-12-21 23:22:00,
2013-12-21 18:27:00,47.1,44.0,29.94,WNW,282,3.0,3.0,89,0.00,,,0.00,VWS V15.00,2013-12-21 23:27:00,
2013-12-21 18:30:00,50.9,48.4,29.93,WSW,256,0.0,2.0,91,0.00,,,0.00,VWS V15.00,2013-12-21 23:30:00,
2013-12-21 18:32:00,47.8,45.3,29.93,WNW,282,2.0,3.0,91,0.00,,,0.00,VWS V15.00,2013-12-21 23:32:00,
2013-12-21 18:37:00,48.3,45.8,29.93,WNW,282,0.0,1.0,91,0.00,,,0.00,VWS V15.00,2013-12-21 23:37:00,
2013-12-21 18:40:00,51.3,48.8,29.93,WSW,255,0.0,5.0,91,0.00,,,0.00,VWS V15.00,2013-12-21 23:40:00,
2013-12-21 18:42:00,48.4,45.9,29.93,WNW,282,0.0,1.0,91,0.00,,,0.00,VWS V15.00,2013-12-21 23:42:00,
2013-12-21 18:47:00,48.7,46.2,29.94,WNW,282,0.0,2.0,91,0.00,,,0.00,VWS V15.00,2013-12-21 23:47:00,
2013-12-21 18:50:00,52.0,49.5,29.92,South,173,2.0,5.0,91,0.00,,,0.00,VWS V15.00,2013-12-21 23:50:00,
2013-12-21 18:52:00,48.9,46.4,29.94,WNW,282,0.0,2.0,91,0.00,,,0.00,VWS V15.00,2013-12-21 23:52:00,
2013-12-21 18:57:00,49.2,46.7,29.94,WNW,282,0.0,0.0,91,0.00,,,0.00,VWS V15.00,2013-12-21 23:57:00,
2013-12-21 19:00:00,53.0,50.5,29.92,SSW,197,5.0,5.0,91,0.00,,,0.00,VWS V15.00,2013-12-22 00:00:00,
2013-12-21 19:02:00,49.6,47.4,29.93,WNW,282,0.0,1.0,92,0.00,,,0.00,VWS V15.00,2013-12-22 00:02:00,
2013-12-21 19:07:00,50.0,47.8,29.93,WNW,282,0.0,2.0,92,0.00,,,0.00,VWS V15.00,2013-12-22 00:07:00,
2013-12-21 19:10:00,53.5,50.7,29.92,South,178,2.0,6.0,90,0.00,,,0.00,VWS V15.00,2013-12-22 00:10:00,
2013-12-21 19:12:00,50.2,48.0,29.93,WNW,282,0.0,3.0,92,0.00,,,0.00,VWS V15.00,2013-12-22 00:12:00,
2013-12-21 19:17:00,50.3,47.8,29.93,WNW,282,0.0,3.0,91,0.00,,,0.00,VWS V15.00,2013-12-22 00:17:00,
2013-12-21 19:20:00,54.0,50.8,29.92,SSW,203,7.0,11.0,89,0.00,,,0.00,VWS V15.00,2013-12-22 00:20:00,
2013-12-21 19:22:00,50.5,48.0,29.93,WNW,287,0.0,4.0,91,0.00,,,0.00,VWS V15.00,2013-12-22 00:22:00,
2013-12-21 19:27:00,50.6,48.1,29.93,WNW,287,0.0,2.0,91,0.00,,,0.00,VWS V15.00,2013-12-22 00:27:00,
2013-12-21 19:30:00,54.5,51.0,29.91,SSW,209,4.0,9.0,88,0.00,,,0.00,VWS V15.00,2013-12-22 00:30:00,
2013-12-21 19:32:00,51.0,48.5,29.93,WSW,256,0.0,2.0,91,0.00,,,0.00,VWS V15.00,2013-12-22 00:32:00,
2013-12-21 19:37:00,51.2,48.7,29.93,WSW,255,0.0,5.0,91,0.00,,,0.00,VWS V15.00,2013-12-22 00:37:00,
2013-12-21 19:40:00,54.8,51.0,29.91,WSW,255,0.0,9.0,87,0.00,,,0.00,VWS V15.00,2013-12-22 00:40:00,
2013-12-21 19:42:00,51.3,48.8,29.93,WSW,255,0.0,5.0,91,0.00,,,0.00,VWS V15.00,2013-12-22 00:42:00,
2013-12-21 19:47:00,51.6,49.1,29.92,SSW,207,0.0,4.0,91,0.00,,,0.00,VWS V15.00,2013-12-22 00:47:00,
2013-12-21 19:50:00,54.8,51.0,29.91,SSW,207,1.0,9.0,87,0.00,,,0.00,VWS V15.00,2013-12-22 00:50:00,
2013-12-21 19:52:00,52.0,49.5,29.92,South,172,1.0,5.0,91,0.00,,,0.00,VWS V15.00,2013-12-22 00:52:00,
2013-12-21 19:57:00,52.4,49.8,29.92,SSE,167,3.0,5.0,91,0.00,,,0.00,VWS V15.00,2013-12-22 00:57:00,
2013-12-21 20:00:00,54.4,50.3,29.92,WSW,238,6.0,6.0,86,0.00,,,0.00,VWS V15.00,2013-12-22 01:00:00,
2013-12-21 20:02:00,53.0,50.5,29.92,South,184,0.0,5.0,91,0.00,,,0.00,VWS V15.00,2013-12-22 01:02:00,
2013-12-21 20:07:00,53.3,50.5,29.92,SSE,152,0.0,6.0,90,0.00,,,0.00,VWS V15.00,2013-12-22 01:07:00,
2013-12-21 20:10:00,54.0,49.9,29.92,SW,225,0.0,6.0,86,0.00,,,0.00,VWS V15.00,2013-12-22 01:10:00,
2013-12-21 20:12:00,53.5,50.6,29.92,South,178,2.0,6.0,90,0.00,,,0.00,VWS V15.00,2013-12-22 01:12:00,
2013-12-21 20:17:00,53.7,50.8,29.92,SSW,201,3.0,7.0,90,0.00,,,0.00,VWS V15.00,2013-12-22 01:17:00,
2013-12-21 20:20:00,53.5,49.4,29.92,SSW,206,0.0,7.0,86,0.00,,,0.00,VWS V15.00,2013-12-22 01:20:00,
2013-12-21 20:22:00,54.0,50.8,29.92,SSW,212,7.0,8.0,89,0.00,,,0.00,VWS V15.00,2013-12-22 01:22:00,
2013-12-21 20:27:00,54.2,51.0,29.92,South,187,4.0,9.0,89,0.00,,,0.00,VWS V15.00,2013-12-22 01:27:00,
2013-12-21 20:30:00,52.8,48.7,29.92,NW,317,0.0,2.0,86,0.00,,,0.00,VWS V15.00,2013-12-22 01:30:00,
2013-12-21 20:32:00,54.5,51.0,29.91,SW,219,3.0,9.0,88,0.00,,,0.00,VWS V15.00,2013-12-22 01:32:00,
2013-12-21 20:37:00,54.6,51.1,29.91,SE,126,1.0,8.0,88,0.00,,,0.00,VWS V15.00,2013-12-22 01:37:00,
2013-12-21 20:40:00,52.2,48.5,29.92,West,273,0.0,3.0,87,0.00,,,0.00,VWS V15.00,2013-12-22 01:40:00,
2013-12-21 20:42:00,54.8,51.0,29.91,WSW,255,1.0,9.0,87,0.00,,,0.00,VWS V15.00,2013-12-22 01:42:00,
2013-12-21 20:47:00,54.8,51.0,29.91,SSW,202,0.0,5.0,87,0.00,,,0.00,VWS V15.00,2013-12-22 01:47:00,
2013-12-21 20:50:00,51.7,48.3,29.92,WNW,292,0.0,3.0,88,0.00,,,0.00,VWS V15.00,2013-12-22 01:50:00,
2013-12-21 20:52:00,54.8,51.0,29.91,SSW,204,1.0,9.0,87,0.00,,,0.00,VWS V15.00,2013-12-22 01:52:00,
2013-12-21 20:57:00,54.6,50.5,29.91,NW,304,0.0,3.0,86,0.00,,,0.00,VWS V15.00,2013-12-22 01:57:00,
2013-12-21 21:00:00,51.8,49.0,29.91,ESE,107,0.0,3.0,90,0.00,,,0.00,VWS V15.00,2013-12-22 02:00:00,
2013-12-21 21:02:00,54.4,50.3,29.92,West,263,0.0,3.0,86,0.00,,,0.00,VWS V15.00,2013-12-22 02:02:00,
2013-12-21 21:07:00,54.3,50.2,29.92,West,269,0.0,6.0,86,0.00,,,0.00,VWS V15.00,2013-12-22 02:07:00,
2013-12-21 21:10:00,52.1,49.6,29.91,SW,214,1.0,6.0,91,0.00,,,0.00,VWS V15.00,2013-12-22 02:10:00,
2013-12-21 21:12:00,54.0,49.9,29.92,SW,224,0.0,6.0,86,0.00,,,0.00,VWS V15.00,2013-12-22 02:12:00,
2013-12-21 21:17:00,53.8,49.7,29.92,ESE,116,1.0,1.0,86,0.00,,,0.00,VWS V15.00,2013-12-22 02:17:00,
2013-12-21 21:20:00,52.5,50.0,29.91,WSW,258,3.0,6.0,91,0.00,,,0.00,VWS V15.00,2013-12-22 02:20:00,
2013-12-21 21:22:00,53.5,49.4,29.92,SSW,206,0.0,7.0,86,0.00,,,0.00,VWS V15.00,2013-12-22 02:22:00,
2013-12-21 21:27:00,53.2,49.1,29.92,SSW,206,0.0,1.0,86,0.00,,,0.00,VWS V15.00,2013-12-22 02:27:00,
2013-12-21 21:30:00,53.0,50.7,29.89,SW,227,0.0,4.0,92,0.00,,,0.00,VWS V15.00,2013-12-22 02:30:00,
2013-12-21 21:32:00,52.8,48.7,29.92,NW,317,0.0,2.0,86,0.00,,,0.00,VWS V15.00,2013-12-22 02:32:00,
2013-12-21 21:36:00,52.4,48.7,29.92,NW,317,0.0,1.0,87,0.00,,,0.00,VWS V15.00,2013-12-22 02:36:00,
2013-12-21 21:40:00,53.3,51.0,29.89,South,184,0.0,8.0,92,0.00,,,0.00,VWS V15.00,2013-12-22 02:40:00,
2013-12-21 21:41:00,52.2,48.5,29.92,West,273,0.0,3.0,87,0.00,,,0.00,VWS V15.00,2013-12-22 02:41:00,
2013-12-21 21:46:00,51.9,48.2,29.92,West,273,1.0,2.0,87,0.00,,,0.00,VWS V15.00,2013-12-22 02:46:00,
2013-12-21 21:50:00,53.2,50.9,29.91,SW,231,0.0,7.0,92,0.00,,,0.00,VWS V15.00,2013-12-22 02:50:00,
2013-12-21 21:51:00,51.8,48.4,29.92,WNW,292,0.0,3.0,88,0.00,,,0.00,VWS V15.00,2013-12-22 02:51:00,
2013-12-21 21:56:00,51.7,48.6,29.92,WNW,292,0.0,3.0,89,0.00,,,0.00,VWS V15.00,2013-12-22 02:56:00,
2013-12-21 22:00:00,53.3,51.0,29.91,WSW,254,0.0,5.0,92,0.00,,,0.00,VWS V15.00,2013-12-22 03:00:00,
2013-12-21 22:01:00,51.8,49.0,29.91,ESE,113,3.0,3.0,90,0.00,,,0.00,VWS V15.00,2013-12-22 03:01:00,
2013-12-21 22:06:00,51.9,49.1,29.91,NW,311,0.0,2.0,90,0.00,,,0.00,VWS V15.00,2013-12-22 03:06:00,
2013-12-21 22:10:00,53.5,51.2,29.91,SSW,211,0.0,6.0,92,0.00,,,0.00,VWS V15.00,2013-12-22 03:10:00,
2013-12-21 22:11:00,52.1,49.6,29.91,SW,214,0.0,6.0,91,0.00,,,0.00,VWS V15.00,2013-12-22 03:11:00,
2013-12-21 22:16:00,52.3,49.8,29.91,WSW,240,0.0,5.0,91,0.00,,,0.00,VWS V15.00,2013-12-22 03:16:00,
2013-12-21 22:20:00,53.8,51.5,29.90,SSW,209,2.0,5.0,92,0.00,,,0.00,VWS V15.00,2013-12-22 03:20:00,
2013-12-21 22:21:00,52.5,50.0,29.91,WSW,239,0.0,5.0,91,0.00,,,0.00,VWS V15.00,2013-12-22 03:21:00,
2013-12-21 22:26:00,52.7,50.5,29.91,SW,223,2.0,4.0,92,0.00,,,0.00,VWS V15.00,2013-12-22 03:26:00,
2013-12-21 22:30:00,54.0,51.7,29.89,WSW,247,3.0,7.0,92,0.00,,,0.00,VWS V15.00,2013-12-22 03:30:00,
2013-12-21 22:31:00,52.9,50.6,29.89,SW,227,4.0,4.0,92,0.00,,,0.00,VWS V15.00,2013-12-22 03:31:00,
2013-12-21 22:36:00,53.1,50.8,29.89,SW,227,2.0,8.0,92,0.00,,,0.00,VWS V15.00,2013-12-22 03:36:00,
2013-12-21 22:40:00,54.1,51.8,29.89,SW,217,0.0,6.0,92,0.00,,,0.00,VWS V15.00,2013-12-22 03:40:00,
2013-12-21 22:41:00,53.2,50.9,29.89,South,184,3.0,8.0,92,0.00,,,0.00,VWS V15.00,2013-12-22 03:41:00,
2013-12-21 22:46:00,53.3,51.0,29.91,WNW,292,3.0,7.0,92,0.00,,,0.00,VWS V15.00,2013-12-22 03:46:00,
2013-12-21 22:50:00,53.9,51.6,29.89,SSW,213,4.0,4.0,92,0.00,,,0.00,VWS V15.00,2013-12-22 03:50:00,
2013-12-21 22:51:00,53.3,51.0,29.91,SW,231,0.0,7.0,92,0.00,,,0.00,VWS V15.00,2013-12-22 03:51:00,
2013-12-21 22:56:00,53.2,50.9,29.91,WNW,285,5.0,5.0,92,0.00,,,0.00,VWS V15.00,2013-12-22 03:56:00,
2013-12-21 23:00:00,54.0,51.7,29.89,SSW,193,1.0,6.0,92,0.00,,,0.00,VWS V15.00,2013-12-22 04:00:00,
2013-12-21 23:01:00,53.3,51.0,29.91,WSW,254,0.0,5.0,92,0.00,,,0.00,VWS V15.00,2013-12-22 04:01:00,
2013-12-21 23:06:00,53.3,51.0,29.91,WNW,289,0.0,3.0,92,0.00,,,0.00,VWS V15.00,2013-12-22 04:06:00,
2013-12-21 23:10:00,54.0,51.7,29.89,SW,216,2.0,7.0,92,0.00,,,0.00,VWS V15.00,2013-12-22 04:10:00,
2013-12-21 23:11:00,53.5,51.2,29.91,WSW,239,1.0,6.0,92,0.00,,,0.00,VWS V15.00,2013-12-22 04:11:00,
2013-12-21 23:16:00,53.6,51.3,29.90,NW,313,0.0,3.0,92,0.00,,,0.00,VWS V15.00,2013-12-22 04:16:00,
2013-12-21 23:20:00,54.2,51.9,29.88,SSW,203,0.0,5.0,92,0.00,,,0.00,VWS V15.00,2013-12-22 04:20:00,
2013-12-21 23:21:00,53.7,51.4,29.90,SW,235,2.0,5.0,92,0.00,,,0.00,VWS V15.00,2013-12-22 04:21:00,
2013-12-21 23:26:00,53.9,51.6,29.90,WSW,246,1.0,4.0,92,0.00,,,0.00,VWS V15.00,2013-12-22 04:26:00,
2013-12-21 23:30:00,54.2,51.9,29.87,WSW,250,1.0,5.0,92,0.00,,,0.00,VWS V15.00,2013-12-22 04:30:00,
2013-12-21 23:31:00,53.9,51.6,29.89,West,281,6.0,7.0,92,0.00,,,0.00,VWS V15.00,2013-12-22 04:31:00,
2013-12-21 23:36:00,54.1,51.8,29.89,NNW,329,0.0,3.0,92,0.00,,,0.00,VWS V15.00,2013-12-22 04:36:00,
2013-12-21 23:40:00,53.8,51.5,29.87,West,265,0.0,4.0,92,0.00,,,0.00,VWS V15.00,2013-12-22 04:40:00,
2013-12-21 23:41:00,54.1,51.8,29.89,SW,217,0.0,6.0,92,0.00,,,0.00,VWS V15.00,2013-12-22 04:41:00,
2013-12-21 23:46:00,54.0,51.7,29.89,SW,217,1.0,3.0,92,0.00,,,0.00,VWS V15.00,2013-12-22 04:46:00,
2013-12-21 23:50:00,53.7,51.4,29.87,WSW,257,1.0,2.0,92,0.00,,,0.00,VWS V15.00,2013-12-22 04:50:00,
2013-12-21 23:51:00,53.9,51.6,29.89,SSW,211,0.0,4.0,92,0.00,,,0.00,VWS V15.00,2013-12-22 04:51:00,
2013-12-21 23:56:00,53.9,51.6,29.89,SSW,212,0.0,6.0,92,0.00,,,0.00,VWS V15.00,2013-12-22 04:56:00,